Weather Roundup
Issued by NWS

Home | Current Version | Previous Version | Graphics & Text | Print | Product List | Glossary Off
Versions: 1 2 3 4 5 6 7 8 9 10 11 12 13 14 15 16 17 18 19 20 21 22 23 24 25 26 27 28 29 30 31 32 33 34 35 36 37 38 39 40 41 42 43 44 45 46 47 48 49 50

000
NZUS93 KARX 241659
HRRWXR

CURRENT HOURLY OBSERVATIONS ACROSS
MUCH OF THE UPPER MISSISSIPPI VALLEY
NATIONAL WEATHER SERVICE LA CROSSE WI
1100 AM CST FRI NOV 24 2017


...SOUTHEAST MINNESOTA...


CITY           SKY/WX    TMP DP  RH WIND       PRES   REMARKS
ROCHESTER      SUNNY     55  40  56 SW18      29.37F
ROCHESTER/MAYO FAIR      55  38  54 SW13      29.37S
WINONA         SUNNY     55  37  50 S6        29.36F
AUSTIN         NOT AVBL
ALBERT LEA     SUNNY     55  37  50 SW14      29.38F
DODGE CENTER   SUNNY     54  37  54 SW17G25   29.36F
PRESTON        SUNNY     54  38  53 SW16G28   29.37F
OWATONNA       SUNNY     57  43  58 SW12      29.37R
FARIBAULT      SUNNY     55  41  58 SW9       29.36F
$$

...ELSEWHERE IN MINNESOTA...


CITY           SKY/WX    TMP DP  RH WIND       PRES   REMARKS
MINNEAPOLIS    CLOUDY    54  40  59 W13       29.35R
INTNL FALLS    CLOUDY    39  33  79 W9        29.28R WCI  33
DULUTH         LGT RAIN  41  38  89 W9        29.26S
RED WING       SUNNY     57  36  44 W7        29.35R
REDWOOD FALLS  SUNNY     59  38  45 NW14G23   29.41R
MANKATO        SUNNY     55  40  56 W12       29.38R
WORTHINGTON    MOSUNNY   56  40  55 NW18G25   29.45R
FAIRMONT       NOT AVBL
$$

...SOUTHWEST WISCONSIN...


CITY           SKY/WX    TMP DP  RH WIND       PRES   REMARKS
LA CROSSE      SUNNY     56  37  49 SE9       29.38F
PRAIRIE DU CHI SUNNY     58  35  42 S9        29.46F
BOSCOBEL       SUNNY     61  37  41 S12       29.45F
LONE ROCK      NOT AVBL
PLATTEVILLE    SUNNY     55  39  53 S17       29.51F
FORT MC COY    SUNNY     58  38  47 SW13G20   29.42F
CAMP DOUGLAS   SUNNY     59  37  44 SW7G17    29.40F
MAUSTON-NEW LI SUNNY     56  37  47 S5G18     29.41F
VIROQUA        FAIR      55  38  53 S13G21    29.43F
WIS DELLS      SUNNY     58  34  40 SW20      29.44F
$$

...ELSEWHERE IN WISCONSIN...


CITY           SKY/WX    TMP DP  RH WIND       PRES   REMARKS
MILWAUKEE      MOSUNNY   59  35  40 SW22G32   29.55F
MADISON        MOSUNNY   56  36  47 S16G23    29.48F
GREEN BAY      MOSUNNY   52  37  56 S16G23    29.40F
EAU CLAIRE     NOT AVBL
BLACK RVR FLS  FAIR      57  34  41 S10G17    29.38F
MEDFORD        CLOUDY    47  35  63 S12       29.34F
WAUSAU         SUNNY     52  36  54 SW15      29.33F
WIS RAPIDS     SUNNY     56  36  47 S15       29.38F
MARSHFIELD     SUNNY     57  36  45 SW14      29.34F
RICE LAKE      SUNNY     52  38  60 SW7       29.34S
$$

...NORTHEAST IOWA...


CITY           SKY/WX    TMP DP  RH WIND       PRES   REMARKS
WATERLOO       SUNNY     60  38  43 SW17      29.42F
DUBUQUE        SUNNY     59  37  44 S22G29    29.48F
DECORAH        SUNNY     57  39  51 SW15      29.41F
MASON CITY     SUNNY     56  40  55 SW14      29.42S
CHARLES CITY   SUNNY     57  39  51 SW16      29.41F
OELWEIN        SUNNY     59  39  47 SW21G28   29.44F
$$

...ELSEWHERE IN IOWA...


CITY           SKY/WX    TMP DP  RH WIND       PRES   REMARKS
DES MOINES     MOSUNNY   63  38  39 SW22      29.47F
IOWA CITY      SUNNY     66  39  37 S18G25    29.52F
FORT DODGE     SUNNY     59  42  53 SW12G22   29.42F
MARSHALLTOWN   SUNNY     61  40  45 SW16G25   29.44F
CEDAR RAPIDS   SUNNY     64  37  36 S21G31    29.47F
$$

...NORTHERN ILLINOIS...


CITY           SKY/WX    TMP DP  RH WIND       PRES   REMARKS
CHICAGO-OHARE  MOSUNNY   53  33  46 S18G26    29.64F
CHICAGO-MIDWAY NOT AVBL
MOLINE         SUNNY     61  36  39 S16G29    29.55F
ROCKFORD       SUNNY     55  37  50 S15       29.62F
PEORIA         SUNNY     55  37  50 S16       29.68F
$$

NOTE: "FAIR" INDICATES FEW OR NO CLOUDS BELOW 12,000 FEET WITH NO
SIGNIFICANT WEATHER AND/OR OBSTRUCTIONS TO VISIBILITY. WIND
SPEEDS ARE IN MILES-PER-HOUR.




USA.gov is the U.S. government's official web portal to all federal, state and local government web resources and services.